This is the latest recevied weather packets stored in our database for station/object W5CRT. If no packets are shown the sender has not sent any weather packets the latest 1 day(s).
| Time | Temp. | Humidity | Pressure | Rain* | Wind** | Luminosity | Snow |
|---|---|---|---|---|---|---|---|
| 1778000453 | 27.22° C | 68% | 1003.4 hPa | 0 mm | 2.68 m/s, 177° | 793 W/m² | - |
| 1778000148 | 27.22° C | 70% | 1003.6 hPa | 0 mm | 1.79 m/s, 248° | 1080 W/m² | - |
| 1777999845 | 26.67° C | 69% | 1003.5 hPa | 0 mm | 1.79 m/s, 186° | 645 W/m² | - |
| 1777999540 | 26.67° C | 71% | 1003.6 hPa | 0 mm | 1.34 m/s, 178° | 594 W/m² | - |
| 1777999238 | 26.67° C | 70% | 1003.8 hPa | 0 mm | 0.89 m/s, 195° | 770 W/m² | - |
| 1777998937 | 26.11° C | 71% | 1003.6 hPa | 0 mm | 3.58 m/s, 182° | 615 W/m² | - |
| 1777998634 | 26.11° C | 72% | 1003.6 hPa | 0 mm | 2.68 m/s, 168° | 597 W/m² | - |
| 1777998332 | 25.56° C | 72% | 1003.2 hPa | 0 mm | 2.24 m/s, 178° | 610 W/m² | - |
| 1777998029 | 25.56° C | 72% | 1003.4 hPa | 0 mm | 1.79 m/s, 211° | 643 W/m² | - |
| 1777997725 | 25.56° C | 72% | 1003.3 hPa | 0 mm | 1.79 m/s, 187° | 553 W/m² | - |
| 1777997423 | 26.11° C | 71% | 1003.2 hPa | 0 mm | 0.89 m/s, 237° | 511 W/m² | - |
| 1777997121 | 25.56° C | 73% | 1003.1 hPa | 0 mm | 1.34 m/s, 261° | 555 W/m² | - |
| 1777996818 | 25.56° C | 73% | 1003.1 hPa | 0 mm | 3.13 m/s, 203° | 774 W/m² | - |
| 1777996514 | 25° C | 74% | 1003.1 hPa | 0 mm | 1.34 m/s, 172° | 592 W/m² | - |
| 1777996211 | 25° C | 75% | 1003.2 hPa | 0 mm | 1.34 m/s, 217° | 546 W/m² | - |
| 1777995907 | 25° C | 74% | 1003.2 hPa | 0 mm | 4.02 m/s, 148° | 476 W/m² | - |
| 1777995603 | 25° C | 74% | 1003.4 hPa | 0 mm | 1.34 m/s, 181° | 420 W/m² | - |
| 1777995301 | 25° C | 75% | 1003.4 hPa | 0 mm | 1.79 m/s, 244° | 381 W/m² | - |
| 1777994997 | 25° C | 74% | 1003.3 hPa | 0 mm | 1.79 m/s, 208° | 469 W/m² | - |
| 1777994694 | 24.44° C | 76% | 1003.2 hPa | 0 mm | 3.13 m/s, 210° | 741 W/m² | - |
| 1777994389 | 24.44° C | 75% | 1003.4 hPa | 0 mm | 1.79 m/s, 177° | 463 W/m² | - |
| 1777994085 | 24.44° C | 76% | 1003.4 hPa | 0 mm | 2.68 m/s, 157° | 404 W/m² | - |
| 1777993783 | 24.44° C | 76% | 1003.1 hPa | 0 mm | 1.79 m/s, 219° | 362 W/m² | - |
| 1777993479 | 24.44° C | 76% | 1003.2 hPa | 0 mm | 2.68 m/s, 200° | 378 W/m² | - |
| 1777993179 | 24.44° C | 76% | 1003.5 hPa | 0 mm | 0.89 m/s, 225° | 409 W/m² | - |
* Rain latest hour (hover to see other rain measurements)
** Current wind speed in m/s (hover to see current wind gust speed)